Montgomery, NY

8:34 AM EDT on October 16, 2019 (GMT -0400)
Orange County

Weather History for KMGJ - July, 2019

Change the Weather History Date:

Friday, July 12, 2019

  Actual Average (KSWF) Record (KSWF)
Temperature  
Mean Temperature 75 °F -  
Max Temperature 86 °F 80 °F 94 °F (1988)
Min Temperature 66 °F 59 °F 43 °F (1978)
Cooling Degree Days 10    
Growing Degree Days 25 (Base 50)    
Moisture  
Dew Point 66 °F    
Average Humidity 83    
Maximum Humidity 100    
Minimum Humidity 43    
Precipitation  
Precipitation 0.00 in - - ()
Sea Level Pressure  
Sea Level Pressure 29.75 in    
Wind  
Wind Speed 4 mph (West)    
Max Wind Speed 14 mph    
Max Gust Speed 20 mph    
Visibility 8 miles    
Events      
Averages and records for this station are not official NWS values.
T = Trace of Precipitation, MM = Missing Value Source: NWS Daily Summary

Daily Weather History Graph

Daily Weather History Graph

Search for Another Location

Airport or City:

Astronomy

Jul. 12, 2019 Rise Set
Actual Time 5:33 AM EDT 8:31 PM EDT
Civil Twilight 5:00 AM EDT 9:04 PM EDT
Nautical Twilight 4:18 AM EDT 9:46 PM EDT
Astronomical Twilight 3:29 AM EDT 10:35 PM EDT
Moon 4:46 PM EDT (7/12) 2:17 AM EDT (7/12)
Length of Visible Light 16h 03m
Length of Day
14h 57m
Waxing Gibbous, 82% of the Moon is Illuminated
Jul 12
Waxing Gibbous
Jul 16
Full
Jul 24
Last Quarter
Jul 31
New
Aug 7
First Quarter

Hourly Weather History & Observations

Time (EDT) Temp. Heat Index Dew Point Humidity Pressure Visibility Wind Dir Wind Speed Gust Speed Precip Events Conditions
12:37 AM 70.0 °F - 70.0 °F 100% 29.75 in 9.0 mi NW 4.6 mph - N/A   Scattered Clouds
12:54 AM 70.0 °F - 70.0 °F 100% 29.74 in 9.0 mi Calm Calm - N/A   Scattered Clouds
1:02 AM 70.0 °F - 70.0 °F 100% 29.75 in 9.0 mi Calm Calm - N/A   Mostly Cloudy
1:33 AM 69.1 °F - 69.1 °F 100% 29.74 in 1.8 mi Calm Calm - N/A   Scattered Clouds
1:43 AM 69.1 °F - 69.1 °F 100% 29.74 in 1.2 mi Calm Calm - N/A   Mostly Cloudy
1:54 AM 69.1 °F - 69.1 °F 100% 29.74 in 1.2 mi Calm Calm - N/A   Mostly Cloudy
2:04 AM 69.1 °F - 69.1 °F 100% 29.75 in 3.0 mi Calm Calm - N/A   Overcast
2:54 AM 69.1 °F - 69.1 °F 100% 29.73 in 10.0 mi SW 3.5 mph - N/A   Overcast
3:51 AM 68.0 °F - 68.0 °F 100% 29.71 in 7.0 mi Calm Calm - N/A   Scattered Clouds
3:54 AM 68.0 °F - 68.0 °F 100% 29.71 in 7.0 mi WSW 3.5 mph - N/A   Scattered Clouds
4:03 AM 68.0 °F - 68.0 °F 100% 29.71 in 8.0 mi Calm Calm - N/A   Mostly Cloudy
4:54 AM 68.0 °F - 68.0 °F 100% 29.70 in 10.0 mi SSW 4.6 mph - N/A   Mostly Cloudy
5:05 AM 68.0 °F - 68.0 °F 100% 29.71 in 6.0 mi SSW 4.6 mph - N/A   Mostly Cloudy
5:14 AM 68.0 °F - 68.0 °F 100% 29.71 in 1.8 mi SSW 3.5 mph - N/A   Mostly Cloudy
5:28 AM 68.0 °F - 68.0 °F 100% 29.71 in 3.0 mi SW 3.5 mph - N/A   Scattered Clouds
5:54 AM 68.0 °F - 68.0 °F 100% 29.70 in 7.0 mi WSW 6.9 mph - N/A   Clear
6:54 AM 70.0 °F - 69.1 °F 97% 29.72 in 10.0 mi SW 5.8 mph - N/A   Scattered Clouds
7:05 AM 71.1 °F - 70.0 °F 96% 29.72 in 10.0 mi WSW 6.9 mph - N/A   Mostly Cloudy
7:43 AM 73.0 °F - 70.0 °F 90% 29.72 in 10.0 mi SSW 4.6 mph - N/A   Scattered Clouds
7:54 AM 73.0 °F - 70.0 °F 90% 29.71 in 10.0 mi South 3.5 mph - N/A   Clear
8:54 AM 75.9 °F - 71.1 °F 85% 29.73 in 10.0 mi SW 8.1 mph - N/A   Mostly Cloudy
9:54 AM 75.9 °F - 70.0 °F 82% 29.73 in 10.0 mi SSW 8.1 mph - N/A   Mostly Cloudy
10:54 AM 78.1 °F - 70.0 °F 76% 29.74 in 10.0 mi SW 10.4 mph - N/A   Mostly Cloudy
11:54 AM 82.0 °F 83.1 °F 63.0 °F 52% 29.73 in 10.0 mi WNW 11.5 mph - N/A   Scattered Clouds
12:54 PM 82.9 °F 83.7 °F 62.1 °F 49% 29.73 in 10.0 mi West 10.4 mph - N/A   Mostly Cloudy
1:54 PM 84.0 °F 84.5 °F 62.1 °F 47% 29.74 in 10.0 mi NNW 10.4 mph - N/A   Scattered Clouds
2:54 PM 84.0 °F 83.8 °F 59.0 °F 43% 29.74 in 10.0 mi West 13.8 mph - N/A   Scattered Clouds
3:54 PM 82.9 °F 82.8 °F 59.0 °F 44% 29.75 in 10.0 mi NW 10.4 mph 18.4 mph N/A   Partly Cloudy
4:54 PM 84.0 °F 83.8 °F 59.0 °F 43% 29.75 in 10.0 mi North 9.2 mph - N/A   Scattered Clouds
5:54 PM 81.0 °F 81.6 °F 60.1 °F 49% 29.77 in 10.0 mi NW 12.7 mph 19.6 mph N/A   Mostly Cloudy
6:54 PM 78.1 °F - 61.0 °F 56% 29.79 in 10.0 mi NNW 11.5 mph - N/A   Clear
7:54 PM 75.0 °F - 61.0 °F 62% 29.82 in - North 8.1 mph - N/A   Unknown
8:54 PM 71.1 °F - 62.1 °F 73% 29.82 in 10.0 mi NW 4.6 mph - N/A   Clear
9:54 PM 68.0 °F - 61.0 °F 78% 29.85 in 10.0 mi SSE 4.6 mph - N/A   Clear
10:54 PM 66.9 °F - 61.0 °F 81% 29.86 in 10.0 mi Calm Calm - N/A   Overcast
11:54 PM 66.9 °F - 61.0 °F 81% 29.87 in 10.0 mi NW 6.9 mph - N/A   Partly Cloudy